Location: La Sioule Rivi�re
(46.3664°N, 3.3197°E)
Time: 12:59:09
(UTC+00:00)

BREEZE-M R/B - Pass Details

Date: 29 October 2020
Orbit: 310 x 4523 km, 49.7° (Epoch: 23 November)

Event Time Altitude Azimuth Distance (km) Brightness Sun altitude
Rises 17:47:15 0° 285° (WNW) 2,407 7.5 -12.8°
Reaches altitude 10° 17:48:51 10° 289° (WNW) 1,728 6.4 -13.1°
Maximum altitude 17:52:32 63° 12° (NNE) 825 3.6 -13.7°
Enters shadow 17:57:18 20° 89° (E) 2,372 5.4 -14.5°
